FW1313 Weather Reports


Display with metric or nautical units.
time (UTC)temp
F
wind
direction
speed
MPH
gust
MPH
rain 1hr
in
rain 24hr
in
rain mn
in
humidity
%
barometer
mb
20260505050358 37 155 0.0 0.0 0.00 0.01 0.00 94 1009.5
20260505040358 38 218 0.0 0.0 0.01 0.01 0.00 94 1009.0
20260505033358 38 221 0.0 0.0 0.01 0.01 0.00 94 1008.8
20260505030401 38 187 0.0 0.0 0.00 0.00 0.00 94 1008.6
20260505023359 38 194 0.0 0.0 0.00 0.00 0.00 94 1008.5
20260505020402 38 211 0.0 0.0 0.00 0.00 0.00 93 1008.4
20260505013359 38 204 0.0 0.0 0.00 0.00 0.00 93 1008.5
20260505010359 39 217 0.0 1.0 0.00 0.00 0.00 93 1008.5
20260505003358 39 157 0.0 0.0 0.00 0.00 0.00 93 1008.4
20260505000402 39 190 0.0 0.0 0.00 0.00 0.00 91 1008.2
20260504233359 39 160 0.0 0.0 0.00 0.00 0.00 89 1008.1
20260504230359 39 191 0.0 0.0 0.00 0.00 0.00 89 1008.3
20260504223359 39 181 0.0 0.0 0.00 0.00 0.00 89 1008.1
20260504220358 38 159 0.0 1.0 0.00 0.00 0.00 90 1007.9
20260504213358 39 172 0.0 0.0 0.00 0.00 0.00 91 1008.2
20260504210401 39 177 0.0 0.0 0.00 0.00 0.00 91 1008.3
20260504203402 38 170 0.0 0.0 0.00 0.00 0.00 91 1008.1
20260504200358 39 164 0.0 0.0 0.00 0.00 0.00 91 1007.7
20260504193358 40 214 0.0 0.0 0.00 0.00 0.00 93 1007.4
20260504190402 38 214 0.0 0.0 0.00 0.00 0.00 94 1007.1
20260504183358 38 184 0.0 0.0 0.00 0.00 0.00 94 1006.9
20260504180358 37 159 0.0 0.0 0.00 0.00 0.00 94 1006.8
20260504173359 37 151 0.0 1.0 0.00 0.00 0.00 94 1006.4
20260504170359 36 154 0.0 0.0 0.00 0.00 0.00 94 1006.0
20260504160358 36 165 0.0 0.0 0.00 0.00 0.00 94 1005.4
20260504150401 35 153 0.0 0.0 0.00 0.00 0.00 94 1005.1
20260504140358 35 181 0.0 0.0 0.00 0.00 0.00 94 1005.0
20260504130401 35 167 0.0 0.0 0.00 0.00 0.00 94 1005.0
20260504110401 36 174 0.0 0.0 0.00 0.00 0.00 94 1005.1
20260504100359 36 120 0.0 0.0 0.00 0.00 0.00 94 1005.4
20260504080401 38 159 0.0 0.0 0.00 0.00 0.00 93 1007.7
20260504070358 38 134 0.0 0.0 0.00 0.00 0.00 93 1007.4